Weather History for Belmar-Farmingdale, NJ

Change the Weather History Date:

Sunday, September 15, 2013

  Actual Average Record
Temperature  
Mean Temperature 60 °F -  
Max Temperature 73 °F 73 °F 84 °F (1998)
Min Temperature 48 °F 58 °F 46 °F (2001)
Degree Days  
Heating Degree Days 4    
Growing Degree Days 10 (Base 50)    
Moisture  
Dew Point 47 °F    
Average Humidity 60    
Maximum Humidity 87    
Minimum Humidity 36    
Precipitation  
Precipitation 0.00 in - - ()
Sea Level Pressure  
Sea Level Pressure 30.17 in    
Wind  
Wind Speed 6 mph (West)    
Max Wind Speed 13 mph    
Max Gust Speed -    
Visibility 10 miles    
Events      
Averages and records for this station are not official NWS values.
T = Trace of Precipitation, MM = Missing Value Source: NWS Daily Summary

Daily Weather History Graph

Daily Weather History Graph

Search for Another Location

Airport:

Trip Planner

Search our weather history database for the weather conditions in past years. The results will help you decide how hot, cold, wet, or windy it might be!

Date:

Astronomy

Sep. 15, 2013 Rise Set
Actual Time 6:37 AM EDT 7:04 PM EDT
Civil Twilight 6:10 AM EDT 7:32 PM EDT
Nautical Twilight 5:38 AM EDT 8:04 PM EDT
Astronomical Twilight 5:05 AM EDT 8:36 PM EDT
Moon 4:30 PM EDT (9/15) 2:12 AM EDT (9/15)
Length of Visible Light 13h 21m
Length of Day
12h 27m
Waxing Gibbous, 82% of the Moon is Illuminated
Sep 15
Waxing Gibbous
Sep 19
Full
Sep 26
Last Quarter
Oct 4
New
Oct 11
First Quarter

Hourly Weather History & Observations

Time (EDT) Temp. Dew Point Humidity Pressure Visibility Wind Dir Wind Speed Gust Speed Precip Events Conditions
12:15 AM 48.2 °F 44.6 °F 87% 30.15 in 10.0 mi WNW 4.6 mph - N/A   Clear
12:35 AM 48.2 °F 44.6 °F 87% 30.15 in 10.0 mi WNW 4.6 mph - N/A   Clear
12:55 AM 48.2 °F 44.6 °F 87% 30.15 in 10.0 mi WNW 5.8 mph - N/A   Clear
1:15 AM 48.2 °F 44.6 °F 87% 30.15 in 10.0 mi NW 4.6 mph - N/A   Clear
1:35 AM 51.8 °F 44.6 °F 76% 30.16 in 10.0 mi NW 4.6 mph - N/A   Clear
1:55 AM 53.6 °F 44.6 °F 72% 30.16 in 10.0 mi WNW 6.9 mph - N/A   Clear
2:15 AM 51.8 °F 44.6 °F 76% 30.16 in 10.0 mi WNW 5.8 mph - N/A   Clear
2:35 AM 53.6 °F 42.8 °F 67% 30.16 in 10.0 mi WNW 5.8 mph - N/A   Clear
2:55 AM 51.8 °F 42.8 °F 71% 30.16 in 10.0 mi WNW 5.8 mph - N/A   Clear
3:15 AM 53.6 °F 42.8 °F 67% 30.16 in 10.0 mi WNW 5.8 mph - N/A   Clear
3:35 AM 53.6 °F 42.8 °F 67% 30.17 in 10.0 mi WNW 5.8 mph - N/A   Clear
3:55 AM 53.6 °F 42.8 °F 67% 30.17 in 10.0 mi WNW 5.8 mph - N/A   Clear
4:15 AM 51.8 °F 42.8 °F 71% 30.17 in 10.0 mi WNW 6.9 mph - N/A   Clear
4:35 AM 51.8 °F 42.8 °F 71% 30.17 in 10.0 mi WNW 8.1 mph - N/A   Clear
4:55 AM 51.8 °F 42.8 °F 71% 30.18 in 10.0 mi WNW 5.8 mph - N/A   Clear
5:15 AM 51.8 °F 42.8 °F 71% 30.18 in 10.0 mi WNW 4.6 mph - N/A   Clear
5:35 AM 51.8 °F 42.8 °F 71% 30.18 in 10.0 mi WNW 4.6 mph - N/A   Clear
5:55 AM 51.8 °F 42.8 °F 71% 30.18 in 10.0 mi WNW 5.8 mph - N/A   Clear
6:15 AM 50.0 °F 42.8 °F 76% 30.19 in 10.0 mi WNW 5.8 mph - N/A   Clear
6:35 AM 50.0 °F 42.8 °F 76% 30.20 in 10.0 mi NW 3.5 mph - N/A   Clear
6:55 AM 50.0 °F 42.8 °F 76% 30.20 in 10.0 mi WNW 5.8 mph - N/A   Clear
7:15 AM 51.8 °F 42.8 °F 71% 30.20 in 10.0 mi WNW 5.8 mph - N/A   Clear
7:35 AM 53.6 °F 42.8 °F 67% 30.21 in 10.0 mi WNW 5.8 mph - N/A   Clear
7:55 AM 55.4 °F 44.6 °F 67% 30.21 in 10.0 mi West 5.8 mph - N/A   Clear
8:15 AM 53.6 °F 46.4 °F 77% 30.22 in 10.0 mi WNW 5.8 mph - N/A   Clear
8:35 AM 59.0 °F 46.4 °F 63% 30.23 in 10.0 mi WNW 6.9 mph - N/A   Clear
8:55 AM 60.8 °F 46.4 °F 59% 30.22 in 10.0 mi WNW 4.6 mph - N/A   Clear
9:15 AM 60.8 °F 46.4 °F 59% 30.23 in 10.0 mi WNW 6.9 mph - N/A   Clear
9:35 AM 62.6 °F 46.4 °F 55% 30.24 in 10.0 mi NW 5.8 mph - N/A   Clear
9:55 AM 62.6 °F 46.4 °F 55% 30.24 in 10.0 mi NW 5.8 mph - N/A   Clear
10:15 AM 62.6 °F 44.6 °F 52% 30.24 in 10.0 mi WNW 9.2 mph - N/A   Clear
10:35 AM 64.4 °F 44.6 °F 49% 30.23 in 10.0 mi WNW 9.2 mph - N/A   Clear
10:55 AM 64.4 °F 46.4 °F 52% 30.23 in 10.0 mi WNW 9.2 mph - N/A   Clear
11:15 AM 66.2 °F 46.4 °F 49% 30.23 in 10.0 mi WNW 8.1 mph - N/A   Clear
11:35 AM 66.2 °F 46.4 °F 49% 30.22 in 10.0 mi WNW 4.6 mph - N/A   Clear
11:55 AM 68.0 °F 48.2 °F 49% 30.22 in 10.0 mi West 8.1 mph - N/A   Clear
12:15 PM 68.0 °F 46.4 °F 46% 30.22 in 10.0 mi WNW 6.9 mph - N/A   Clear
12:35 PM 69.8 °F 46.4 °F 43% 30.21 in 10.0 mi West 9.2 mph - N/A   Clear
12:55 PM 69.8 °F 46.4 °F 43% 30.21 in 10.0 mi West 8.1 mph - N/A   Clear
1:15 PM 69.8 °F 46.4 °F 43% 30.20 in 10.0 mi West 11.5 mph - N/A   Clear
1:35 PM 69.8 °F 46.4 °F 43% 30.19 in 10.0 mi WSW 4.6 mph - N/A   Clear
1:55 PM 71.6 °F 46.4 °F 41% 30.19 in 10.0 mi West 8.1 mph - N/A   Clear
2:15 PM 71.6 °F 46.4 °F 41% 30.18 in 10.0 mi West 6.9 mph - N/A   Clear
2:35 PM 71.6 °F 46.4 °F 41% 30.18 in 10.0 mi West 8.1 mph - N/A   Clear
2:55 PM 73.4 °F 46.4 °F 38% 30.17 in 10.0 mi West 12.7 mph - N/A   Clear
3:15 PM 73.4 °F 46.4 °F 38% 30.16 in 10.0 mi West 9.2 mph - N/A   Clear
3:35 PM 73.4 °F 46.4 °F 38% 30.15 in 10.0 mi WNW 6.9 mph - N/A   Clear
3:55 PM 73.4 °F 46.4 °F 38% 30.15 in 10.0 mi West 9.2 mph - N/A   Clear
4:15 PM 73.4 °F 44.6 °F 36% 30.14 in 10.0 mi WNW 6.9 mph - N/A   Clear
4:35 PM 73.4 °F 46.4 °F 38% 30.13 in 10.0 mi WNW 6.9 mph - N/A   Clear
4:55 PM 73.4 °F 46.4 °F 38% 30.13 in 10.0 mi WSW 6.9 mph - N/A   Clear
5:15 PM 73.4 °F 46.4 °F 38% 30.13 in 10.0 mi SW 6.9 mph - N/A   Clear
5:35 PM 71.6 °F 46.4 °F 41% 30.13 in 10.0 mi WSW 5.8 mph - N/A   Clear
5:55 PM 73.4 °F 48.2 °F 41% 30.12 in 10.0 mi SSW 3.5 mph - N/A   Clear
6:15 PM 73.4 °F 53.6 °F 50% 30.12 in 10.0 mi SSE 3.5 mph - N/A   Clear
6:35 PM 71.6 °F 53.6 °F 53% 30.12 in 10.0 mi Calm Calm - N/A   Clear
6:55 PM 69.8 °F 53.6 °F 56% 30.11 in 10.0 mi South 3.5 mph - N/A   Clear
7:15 PM 71.6 °F 53.6 °F 53% 30.11 in 10.0 mi Calm Calm - N/A   Clear
7:35 PM 69.8 °F 55.4 °F 60% 30.11 in 10.0 mi SSW 3.5 mph - N/A   Clear
7:55 PM 66.2 °F 53.6 °F 64% 30.12 in 10.0 mi South 4.6 mph - N/A   Clear
8:15 PM 66.2 °F 51.8 °F 60% 30.12 in 10.0 mi SW 3.5 mph - N/A   Clear
8:35 PM 66.2 °F 53.6 °F 64% 30.13 in 10.0 mi SSW 5.8 mph - N/A   Clear
8:55 PM 64.4 °F 53.6 °F 68% 30.13 in 10.0 mi SSW 6.9 mph - N/A   Clear
9:15 PM 64.4 °F 51.8 °F 64% 30.13 in 10.0 mi SW 8.1 mph - N/A   Clear
9:35 PM 64.4 °F 51.8 °F 64% 30.13 in 10.0 mi SW 6.9 mph - N/A   Clear
9:55 PM 62.6 °F 51.8 °F 68% 30.13 in 10.0 mi SW 6.9 mph - N/A   Clear
10:15 PM 64.4 °F 51.8 °F 64% 30.13 in 10.0 mi SSW 6.9 mph - N/A   Clear
10:35 PM 62.6 °F 51.8 °F 68% 30.13 in 10.0 mi SW 5.8 mph - N/A   Clear
10:55 PM 62.6 °F 51.8 °F 68% 30.13 in 10.0 mi SW 6.9 mph - N/A   Clear
11:15 PM 62.6 °F 51.8 °F 68% 30.12 in 10.0 mi SW 5.8 mph - N/A   Clear
11:35 PM 62.6 °F 51.8 °F 68% 30.12 in 10.0 mi SW 5.8 mph - N/A   Clear
11:55 PM 62.6 °F 51.8 °F 68% 30.12 in 10.0 mi SW 5.8 mph - N/A   Clear